| time (UTC) | temp F | wind direction | speed MPH | gust MPH | rain 1hr in | rain 24hr in | rain mn in | humidity % | barometer mb |
| 20260503225054 | 79 | 149 | 3.0 | 10.0 | 0.00 | 0.00 | 0.00 | 42 | 1018.4 |
| 20260503224557 | 80 | 100 | 3.0 | 10.0 | 0.00 | 0.00 | 0.00 | 42 | 1018.5 |
| 20260503224051 | 80 | 101 | 3.0 | 10.0 | 0.00 | 0.00 | 0.00 | 40 | 1018.7 |
| 20260503223551 | 80 | 156 | 3.0 | 9.0 | 0.00 | 0.00 | 0.00 | 41 | 1018.8 |
| 20260503223057 | 80 | 158 | 3.0 | 9.0 | 0.00 | 0.00 | 0.00 | 41 | 1018.8 |
| 20260503222550 | 80 | 101 | 4.0 | 9.0 | 0.00 | 0.00 | 0.00 | 40 | 1018.9 |
| 20260503222054 | 80 | 166 | 3.0 | 9.0 | 0.00 | 0.00 | 0.00 | 43 | 1018.8 |
| 20260503221555 | 80 | 84 | 2.0 | 9.0 | 0.00 | 0.00 | 0.00 | 43 | 1018.8 |
| 20260503221054 | 80 | 127 | 2.0 | 10.0 | 0.00 | 0.00 | 0.00 | 44 | 1018.8 |
| 20260503220555 | 80 | 63 | 4.0 | 11.0 | 0.00 | 0.00 | 0.00 | 41 | 1018.9 |
| 20260503215555 | 80 | 167 | 4.0 | 10.0 | 0.00 | 0.00 | 0.00 | 43 | 1019.2 |
| 20260503215054 | 80 | 90 | 3.0 | 10.0 | 0.00 | 0.00 | 0.00 | 42 | 1019.2 |
| 20260503214557 | 80 | 132 | 4.0 | 10.0 | 0.00 | 0.00 | 0.00 | 41 | 1019.2 |
| 20260503214059 | 80 | 85 | 2.0 | 11.0 | 0.00 | 0.00 | 0.00 | 40 | 1019.4 |
| 20260503213554 | 80 | 92 | 2.0 | 11.0 | 0.00 | 0.00 | 0.00 | 42 | 1019.6 |
| 20260503213123 | 79 | 205 | 4.0 | 9.0 | 0.00 | 0.00 | 0.00 | 41 | 1019.7 |
| 20260503212554 | 79 | 111 | 4.0 | 9.0 | 0.00 | 0.00 | 0.00 | 42 | 1019.7 |
| 20260503212054 | 79 | 169 | 4.0 | 12.0 | 0.00 | 0.00 | 0.00 | 42 | 1019.8 |
| 20260503211619 | 79 | 148 | 5.0 | 12.0 | 0.00 | 0.00 | 0.00 | 44 | 1019.9 |
| 20260503211052 | 79 | 155 | 6.0 | 17.0 | 0.00 | 0.00 | 0.00 | 42 | 1020.0 |
| 20260503210552 | 79 | 199 | 7.0 | 17.0 | 0.00 | 0.00 | 0.00 | 42 | 1020.1 |
| 20260503210052 | 79 | 200 | 6.0 | 14.0 | 0.00 | 0.00 | 0.00 | 45 | 1020.0 |
| 20260503205552 | 80 | 167 | 4.0 | 9.0 | 0.00 | 0.00 | 0.00 | 41 | 1020.1 |
| 20260503205056 | 80 | 138 | 3.0 | 9.0 | 0.00 | 0.00 | 0.00 | 46 | 1020.2 |
| 20260503204606 | 79 | 190 | 4.0 | 10.0 | 0.00 | 0.00 | 0.00 | 47 | 1020.2 |
| 20260503204054 | 79 | 208 | 4.0 | 10.0 | 0.00 | 0.00 | 0.00 | 42 | 1020.2 |
| 20260503203551 | 79 | 171 | 5.0 | 18.0 | 0.00 | 0.00 | 0.00 | 45 | 1020.4 |
| 20260503203111 | 79 | 196 | 8.0 | 18.0 | 0.00 | 0.00 | 0.00 | 44 | 1020.5 |
| 20260503202552 | 79 | 194 | 7.0 | 13.0 | 0.00 | 0.00 | 0.00 | 44 | 1020.4 |
| 20260503202056 | 79 | 153 | 3.0 | 12.0 | 0.00 | 0.00 | 0.00 | 44 | 1020.4 |
| 20260503201552 | 79 | 194 | 4.0 | 13.0 | 0.00 | 0.00 | 0.00 | 44 | 1020.6 |
| 20260503201055 | 79 | 112 | 5.0 | 14.0 | 0.00 | 0.00 | 0.00 | 44 | 1020.6 |
| 20260503200551 | 79 | 182 | 6.0 | 14.0 | 0.00 | 0.00 | 0.00 | 44 | 1020.8 |
| 20260503200054 | 79 | 156 | 7.0 | 14.0 | 0.00 | 0.00 | 0.00 | 45 | 1020.7 |
| 20260503195555 | 80 | 117 | 5.0 | 11.0 | 0.00 | 0.00 | 0.00 | 47 | 1020.9 |
| 20260503195054 | 80 | 108 | 5.0 | 11.0 | 0.00 | 0.00 | 0.00 | 43 | 1020.9 |
| 20260503194611 | 80 | 192 | 6.0 | 11.0 | 0.00 | 0.00 | 0.00 | 44 | 1020.9 |
| 20260503194054 | 80 | 172 | 4.0 | 12.0 | 0.00 | 0.00 | 0.00 | 44 | 1021.1 |
| 20260503193554 | 80 | 85 | 3.0 | 14.0 | 0.00 | 0.00 | 0.00 | 44 | 1021.2 |
| 20260503193107 | 80 | 151 | 6.0 | 16.0 | 0.00 | 0.00 | 0.00 | 45 | 1021.3 |
| 20260503192552 | 80 | 155 | 5.0 | 16.0 | 0.00 | 0.00 | 0.00 | 44 | 1021.3 |
| 20260503192055 | 80 | 162 | 6.0 | 12.0 | 0.00 | 0.00 | 0.00 | 43 | 1021.5 |
| 20260503191604 | 79 | 161 | 5.0 | 12.0 | 0.00 | 0.00 | 0.00 | 47 | 1021.4 |
| 20260503191055 | 79 | 117 | 4.0 | 10.0 | 0.00 | 0.00 | 0.00 | 44 | 1021.4 |
| 20260503190556 | 79 | 114 | 4.0 | 10.0 | 0.00 | 0.00 | 0.00 | 43 | 1021.5 |
| 20260503190056 | 79 | 96 | 5.0 | 12.0 | 0.00 | 0.00 | 0.00 | 45 | 1021.6 |
| 20260503185554 | 79 | 150 | 3.0 | 12.0 | 0.00 | 0.00 | 0.00 | 43 | 1021.6 |
| 20260503185054 | 79 | 164 | 6.0 | 12.0 | 0.00 | 0.00 | 0.00 | 44 | 1021.7 |
| 20260503184628 | 80 | 207 | 6.0 | 13.0 | 0.00 | 0.00 | 0.00 | 43 | 1021.9 |
| 20260503184054 | 80 | 196 | 3.0 | 16.0 | 0.00 | 0.00 | 0.00 | 44 | 1021.9 |
| 20260503183553 | 79 | 67 | 5.0 | 16.0 | 0.00 | 0.00 | 0.00 | 44 | 1022.0 |
| 20260503183108 | 79 | 97 | 3.0 | 9.0 | 0.00 | 0.00 | 0.00 | 44 | 1022.1 |
| 20260503182552 | 79 | 78 | 4.0 | 12.0 | 0.00 | 0.00 | 0.00 | 41 | 1022.1 |
| 20260503182052 | 79 | 188 | 4.0 | 14.0 | 0.00 | 0.00 | 0.00 | 46 | 1022.3 |
| 20260503181557 | 79 | 147 | 4.0 | 14.0 | 0.00 | 0.00 | 0.00 | 41 | 1022.3 |
| 20260503181052 | 79 | 171 | 3.0 | 12.0 | 0.00 | 0.00 | 0.00 | 42 | 1022.4 |
| 20260503180554 | 79 | 113 | 4.0 | 12.0 | 0.00 | 0.00 | 0.00 | 40 | 1022.4 |
| 20260503180053 | 79 | 161 | 3.0 | 12.0 | 0.00 | 0.00 | 0.00 | 42 | 1022.5 |
| 20260503175554 | 79 | 96 | 2.0 | 9.0 | 0.00 | 0.00 | 0.00 | 40 | 1022.7 |
| 20260503175054 | 79 | 143 | 2.0 | 8.0 | 0.00 | 0.00 | 0.00 | 43 | 1022.7 |
| 20260503174613 | 79 | 95 | 3.0 | 8.0 | 0.00 | 0.00 | 0.00 | 40 | 1022.8 |
| 20260503174054 | 79 | 77 | 3.0 | 9.0 | 0.00 | 0.00 | 0.00 | 41 | 1022.8 |
| 20260503173555 | 79 | 63 | 4.0 | 9.0 | 0.00 | 0.00 | 0.00 | 39 | 1023.0 |
| 20260503173116 | 79 | 204 | 3.0 | 9.0 | 0.00 | 0.00 | 0.00 | 43 | 1023.2 |
| 20260503172555 | 79 | 148 | 3.0 | 9.0 | 0.00 | 0.00 | 0.00 | 42 | 1023.1 |
| 20260503172058 | 78 | 173 | 2.0 | 8.0 | 0.00 | 0.00 | 0.00 | 46 | 1023.3 |
| 20260503171553 | 78 | 228 | 4.0 | 12.0 | 0.00 | 0.00 | 0.00 | 44 | 1023.2 |
| 20260503171054 | 78 | 213 | 5.0 | 12.0 | 0.00 | 0.00 | 0.00 | 45 | 1023.2 |
| 20260503170554 | 78 | 206 | 4.0 | 8.0 | 0.00 | 0.00 | 0.00 | 45 | 1023.4 |
| 20260503150552 | 73 | 196 | 5.0 | 8.0 | 0.00 | 0.00 | 0.00 | 60 | 1023.5 |
| 20260503131054 | 58 | 0 | 0.0 | 0.0 | 0.00 | 0.01 | 0.00 | 93 | 1023.0 |
| 20260503130555 | 57 | 0 | 0.0 | 0.0 | 0.00 | 0.01 | 0.00 | 93 | 1022.9 |
| 20260503110551 | 52 | 0 | 0.0 | 0.0 | 0.00 | 0.01 | 0.00 | 90 | 1021.8 |
| 20260503100107 | 53 | 0 | 0.0 | 0.0 | 0.00 | 0.01 | 0.00 | 90 | 1021.4 |
| 20260503090108 | 53 | 0 | 0.0 | 0.0 | 0.00 | 0.01 | 0.00 | 89 | 1021.6 |
| 20260503081601 | 54 | 0 | 0.0 | 0.0 | 0.00 | 0.01 | 0.00 | 89 | 1021.6 |
| 20260503081052 | 54 | 0 | 0.0 | 0.0 | 0.00 | 0.01 | 0.00 | 89 | 1021.5 |
| 20260503080556 | 54 | 0 | 0.0 | 0.0 | 0.00 | 0.01 | 0.00 | 89 | 1021.7 |
| 20260503080104 | 54 | 0 | 0.0 | 0.0 | 0.00 | 0.01 | 0.00 | 89 | 1021.6 |
| 20260503072552 | 55 | 0 | 0.0 | 0.0 | 0.00 | 0.01 | 0.00 | 89 | 1021.8 |
| 20260503072052 | 55 | 0 | 0.0 | 0.0 | 0.00 | 0.01 | 0.00 | 89 | 1021.8 |
| 20260503071609 | 55 | 0 | 0.0 | 0.0 | 0.00 | 0.01 | 0.00 | 89 | 1021.7 |
| 20260503071053 | 55 | 0 | 0.0 | 0.0 | 0.00 | 0.01 | 0.00 | 89 | 1021.7 |
| 20260503070552 | 55 | 0 | 0.0 | 0.0 | 0.00 | 0.01 | 0.00 | 89 | 1021.9 |
| 20260503070112 | 55 | 0 | 0.0 | 0.0 | 0.00 | 0.01 | 0.00 | 89 | 1021.9 |
| 20260503060105 | 56 | 0 | 0.0 | 0.0 | 0.00 | 0.01 | 0.00 | 89 | 1022.0 |
| 20260503055051 | 56 | 0 | 0.0 | 0.0 | 0.00 | 0.01 | 0.00 | 89 | 1022.1 |
| 20260503054558 | 56 | 0 | 0.0 | 0.0 | 0.00 | 0.01 | 0.00 | 89 | 1021.9 |
| 20260503054053 | 56 | 0 | 0.0 | 0.0 | 0.00 | 0.01 | 0.00 | 88 | 1021.8 |
| 20260503053552 | 56 | 0 | 0.0 | 0.0 | 0.00 | 0.01 | 0.00 | 89 | 1021.7 |
| 20260503053055 | 56 | 0 | 0.0 | 0.0 | 0.00 | 0.01 | 0.00 | 89 | 1021.7 |
| 20260503052551 | 57 | 0 | 0.0 | 0.0 | 0.00 | 0.01 | 0.00 | 89 | 1021.8 |
| 20260503052053 | 57 | 0 | 0.0 | 0.0 | 0.00 | 0.01 | 0.00 | 88 | 1021.8 |
| 20260503051555 | 57 | 0 | 0.0 | 0.0 | 0.00 | 0.01 | 0.00 | 88 | 1021.8 |
| 20260503051056 | 57 | 0 | 0.0 | 0.0 | 0.00 | 0.01 | 0.00 | 88 | 1021.7 |
| 20260503050553 | 57 | 0 | 0.0 | 0.0 | 0.00 | 0.01 | 0.00 | 88 | 1021.8 |
| 20260503045553 | 57 | 0 | 0.0 | 0.0 | 0.00 | 0.01 | 0.01 | 88 | 1021.7 |
| 20260503045052 | 57 | 0 | 0.0 | 0.0 | 0.00 | 0.01 | 0.01 | 88 | 1021.6 |
| 20260503044554 | 58 | 0 | 0.0 | 0.0 | 0.00 | 0.01 | 0.01 | 88 | 1021.7 |
| 20260503044051 | 58 | 0 | 0.0 | 0.0 | 0.00 | 0.01 | 0.01 | 88 | 1021.6 |
| 20260503043552 | 58 | 0 | 0.0 | 0.0 | 0.00 | 0.01 | 0.01 | 87 | 1021.6 |
| 20260503043054 | 58 | 0 | 0.0 | 0.0 | 0.00 | 0.01 | 0.01 | 87 | 1021.7 |
| 20260503042551 | 58 | 0 | 0.0 | 0.0 | 0.00 | 0.01 | 0.01 | 87 | 1021.7 |
| 20260503042051 | 58 | 0 | 0.0 | 0.0 | 0.00 | 0.01 | 0.01 | 87 | 1021.7 |
| 20260503041600 | 58 | 0 | 0.0 | 0.0 | 0.00 | 0.01 | 0.01 | 87 | 1021.7 |
| 20260503041055 | 58 | 0 | 0.0 | 0.0 | 0.00 | 0.01 | 0.01 | 87 | 1021.7 |
| 20260503040551 | 58 | 0 | 0.0 | 0.0 | 0.00 | 0.01 | 0.01 | 86 | 1021.8 |
| 20260503040057 | 59 | 0 | 0.0 | 0.0 | 0.00 | 0.01 | 0.01 | 86 | 1021.6 |
| 20260503035553 | 59 | 0 | 0.0 | 0.0 | 0.00 | 0.01 | 0.01 | 86 | 1021.6 |
| 20260503035056 | 59 | 0 | 0.0 | 0.0 | 0.00 | 0.01 | 0.01 | 86 | 1021.5 |
| 20260503034600 | 59 | 0 | 0.0 | 0.0 | 0.00 | 0.01 | 0.01 | 86 | 1021.5 |
| 20260503034052 | 59 | 0 | 0.0 | 0.0 | 0.00 | 0.01 | 0.01 | 85 | 1021.4 |
| 20260503033553 | 59 | 0 | 0.0 | 0.0 | 0.00 | 0.01 | 0.01 | 85 | 1021.4 |
| 20260503033100 | 59 | 0 | 0.0 | 0.0 | 0.00 | 0.01 | 0.01 | 85 | 1021.6 |
| 20260503032553 | 60 | 0 | 0.0 | 0.0 | 0.00 | 0.01 | 0.01 | 85 | 1021.4 |
| 20260503032055 | 60 | 0 | 0.0 | 0.0 | 0.00 | 0.01 | 0.01 | 85 | 1021.3 |
| 20260503031557 | 60 | 0 | 0.0 | 0.0 | 0.00 | 0.01 | 0.01 | 85 | 1021.3 |
| 20260503031053 | 60 | 0 | 0.0 | 0.0 | 0.00 | 0.01 | 0.01 | 84 | 1021.3 |
| 20260503030552 | 61 | 0 | 0.0 | 0.0 | 0.00 | 0.01 | 0.01 | 84 | 1021.0 |
| 20260503030053 | 61 | 0 | 0.0 | 0.0 | 0.00 | 0.01 | 0.01 | 84 | 1021.0 |
| 20260503025552 | 61 | 0 | 0.0 | 0.0 | 0.00 | 0.01 | 0.01 | 83 | 1020.9 |
| 20260503025055 | 61 | 0 | 0.0 | 0.0 | 0.00 | 0.01 | 0.01 | 83 | 1020.7 |
| 20260503024625 | 62 | 0 | 0.0 | 0.0 | 0.00 | 0.01 | 0.01 | 82 | 1020.8 |
| 20260503024051 | 62 | 0 | 0.0 | 0.0 | 0.00 | 0.01 | 0.01 | 82 | 1020.7 |
| 20260503023552 | 62 | 0 | 0.0 | 0.0 | 0.00 | 0.01 | 0.01 | 81 | 1020.7 |
| 20260503023100 | 62 | 0 | 0.0 | 0.0 | 0.00 | 0.01 | 0.01 | 81 | 1020.7 |
| 20260503022555 | 63 | 0 | 0.0 | 0.0 | 0.00 | 0.01 | 0.01 | 81 | 1020.7 |
| 20260503022057 | 63 | 0 | 0.0 | 0.0 | 0.00 | 0.01 | 0.01 | 80 | 1020.6 |
| 20260503021555 | 64 | 0 | 0.0 | 0.0 | 0.00 | 0.01 | 0.01 | 79 | 1020.6 |
| 20260503021054 | 64 | 0 | 0.0 | 0.0 | 0.00 | 0.01 | 0.01 | 78 | 1020.5 |
| 20260503020553 | 64 | 0 | 0.0 | 0.0 | 0.00 | 0.01 | 0.01 | 77 | 1020.4 |
| 20260503020053 | 65 | 0 | 0.0 | 2.0 | 0.00 | 0.01 | 0.01 | 77 | 1020.4 |
| 20260503015552 | 65 | 0 | 0.0 | 2.0 | 0.00 | 0.01 | 0.01 | 77 | 1020.4 |
| 20260503015056 | 65 | 0 | 0.0 | 0.0 | 0.00 | 0.01 | 0.01 | 76 | 1020.4 |
| 20260503014625 | 66 | 0 | 0.0 | 0.0 | 0.00 | 0.01 | 0.01 | 74 | 1020.2 |
| 20260503014052 | 66 | 0 | 0.0 | 0.0 | 0.00 | 0.01 | 0.01 | 74 | 1020.2 |
| 20260503013553 | 67 | 0 | 0.0 | 0.0 | 0.00 | 0.01 | 0.01 | 73 | 1020.2 |
| 20260503013054 | 68 | 0 | 0.0 | 0.0 | 0.00 | 0.01 | 0.01 | 72 | 1020.3 |
| 20260503012554 | 68 | 0 | 0.0 | 0.0 | 0.00 | 0.01 | 0.01 | 71 | 1020.1 |
| 20260503012051 | 68 | 0 | 0.0 | 0.0 | 0.00 | 0.01 | 0.01 | 71 | 1020.1 |
| 20260503011625 | 69 | 0 | 0.0 | 0.0 | 0.00 | 0.01 | 0.01 | 70 | 1020.2 |
| 20260503011054 | 70 | 0 | 0.0 | 0.0 | 0.00 | 0.01 | 0.01 | 67 | 1020.1 |
| 20260503010551 | 70 | 0 | 0.0 | 0.0 | 0.00 | 0.01 | 0.01 | 65 | 1020.1 |
| 20260503010053 | 71 | 0 | 0.0 | 0.0 | 0.00 | 0.01 | 0.01 | 66 | 1019.9 |
| 20260503005554 | 71 | 0 | 0.0 | 0.0 | 0.00 | 0.04 | 0.01 | 65 | 1020.0 |
| 20260503005051 | 72 | 0 | 0.0 | 0.0 | 0.00 | 0.04 | 0.01 | 64 | 1019.9 |
| 20260503004615 | 72 | 0 | 0.0 | 2.0 | 0.00 | 0.04 | 0.01 | 61 | 1019.8 |
| 20260503004051 | 72 | 0 | 0.0 | 5.0 | 0.00 | 0.04 | 0.01 | 60 | 1019.7 |
| 20260503003552 | 72 | 51 | 1.0 | 5.0 | 0.00 | 0.04 | 0.01 | 57 | 1019.6 |
| 20260503003054 | 73 | 42 | 2.0 | 6.0 | 0.00 | 0.04 | 0.01 | 56 | 1019.7 |
| 20260503002551 | 73 | 50 | 2.0 | 8.0 | 0.00 | 0.04 | 0.01 | 56 | 1019.8 |
| 20260503002053 | 73 | 48 | 2.0 | 8.0 | 0.00 | 0.04 | 0.01 | 57 | 1019.9 |
| 20260503001552 | 73 | 38 | 3.0 | 8.0 | 0.00 | 0.04 | 0.01 | 54 | 1019.7 |
| 20260503001053 | 74 | 73 | 2.0 | 8.0 | 0.00 | 0.04 | 0.01 | 54 | 1019.7 |
| 20260503000552 | 74 | 58 | 3.0 | 8.0 | 0.00 | 0.04 | 0.01 | 55 | 1019.7 |
| 20260503000053 | 74 | 68 | 2.0 | 9.0 | 0.00 | 0.04 | 0.01 | 54 | 1019.7 |
| 20260502235551 | 74 | 51 | 3.0 | 9.0 | 0.00 | 0.12 | 0.01 | 54 | 1019.6 |
| 20260502235051 | 74 | 40 | 3.0 | 6.0 | 0.00 | 0.12 | 0.01 | 54 | 1019.6 |
| 20260502234612 | 74 | 53 | 2.0 | 10.0 | 0.00 | 0.12 | 0.01 | 53 | 1019.7 |
| 20260502234051 | 74 | 77 | 4.0 | 10.0 | 0.00 | 0.12 | 0.01 | 54 | 1019.7 |
| 20260502233554 | 74 | 61 | 3.0 | 12.0 | 0.00 | 0.12 | 0.01 | 54 | 1019.6 |
| 20260502233052 | 74 | 39 | 5.0 | 12.0 | 0.00 | 0.12 | 0.01 | 52 | 1019.5 |
| 20260502232552 | 75 | 39 | 3.0 | 11.0 | 0.00 | 0.12 | 0.01 | 54 | 1019.4 |
| 20260502232053 | 75 | 88 | 2.0 | 11.0 | 0.00 | 0.12 | 0.01 | 54 | 1019.3 |
| 20260502231552 | 75 | 57 | 3.0 | 9.0 | 0.00 | 0.12 | 0.01 | 52 | 1019.2 |
| 20260502231056 | 75 | 58 | 4.0 | 9.0 | 0.00 | 0.12 | 0.01 | 52 | 1019.2 |
| 20260502230555 | 75 | 82 | 2.0 | 10.0 | 0.00 | 0.12 | 0.01 | 54 | 1019.3 |
| 20260502230059 | 75 | 314 | 2.0 | 10.0 | 0.00 | 0.12 | 0.01 | 55 | 1019.3 |
| 20260502225550 | 75 | 39 | 4.0 | 10.0 | 0.00 | 0.30 | 0.01 | 53 | 1019.3 |